STARLINK-1304 (45376 NORAD) Tracking and Keplerian Element Data

This shows tracking and keplerian element data for the satellite.

Feedback or suggestion? Click here.




ElementValue
Catalog45376
NameSTARLINK-1304
Epoch Orbit1084
Epoch Day144.91668981
Epoch Year2020
RAAN304.6933
Inclination52.999
Eccentricity0.000123
Argument of Perigee95.5354
Mean Anonmoly209.9712
Mean Motion15.05586573
Decay Rate0.00036605
L11 45376U 20019S 20144.91668981 .00036605 00000-0 25180-2 0 9994
L22 45376 52.9990 304.6933 0001230 95.5354 209.9712 15.05586573 10844

Live tracking and technical data element details for STARLINK-1304 (NORAD 45376). STARLINK-1304 can be tracked NOW for your location showing map with azimuth and elevation plus other details from your city location.

Track the satellite on the map from your city or location and see movement details for azimuth, elevation, latitude, longitude, range, height, and movement on the map or in text.







IsCatalogInMostPopularTable: catalog: 45376, numindb: 12
Update: records affected: 1



GetName: 45376 STARLINK-1304

Hit Count: updated at: Tue, 26 May 2020 04:14:51 GMT